User: anonymous   Login
Location: ???????
(55.4362°N, 38.1183°E)
Time: 09:29:27
(UTC+00:00)
Language:

COSMOS 2428 - Orbit

View from above orbital plane
View from above orbital plane
View from above satellite
View from above satellite

Ground track
Ground track

The orbit data is extracted from the following two-line orbital elements,

1 31792U 07029A   21264.09244027  .00000295  00000-0  18623-3 0  9992
2 31792  70.9153  25.0657 0005704 101.6792 258.4969 14.12356816733908
Epoch (UTC): 21 September 2021 02:13:06
Eccentricity: 0.0005704
inclination: 70.9153°
perigee height: 847 km
apogee height: 855 km
right ascension of ascending node: 25.0657°
argument of perigee: 101.6792°
revolutions per day: 14.12356816
mean anomaly at epoch: 258.4969°
orbit number at epoch: 73390

The dashed part of the orbit path shows where the satellite is in the earth's shadow,  

DLR